EW9978 Weather Reports


Display with metric or nautical units.
time (UTC)temp
F
wind
direction
speed
MPH
gust
MPH
rain 1hr
in
rain 24hr
in
rain mn
in
humidity
%
barometer
mb
20260504234326 67 298 7.0 16.0 0.00 0.00 0.00 72 -0.1
20260504232824 66 268 7.0 15.0 0.00 0.00 0.00 71 -0.1
20260504231322 67 272 9.0 18.0 0.00 0.00 0.00 68 -0.1
20260504225325 67 267 9.0 13.0 0.00 0.00 0.00 68 -0.1
20260504224820 67 303 4.0 14.0 0.00 0.00 0.00 69 -0.1
20260504224328 67 250 5.0 14.0 0.00 0.00 0.00 69 -0.1
20260504220338 69 246 11.0 15.0 0.00 0.00 0.00 69 -0.1
20260504215822 68 311 9.0 14.0 0.00 0.00 0.00 68 -0.1
20260504214826 68 236 12.0 18.0 0.00 0.00 0.00 72 -0.1
20260504214331 68 288 5.0 16.0 0.00 0.00 0.00 71 -0.1
20260504213822 68 251 7.0 17.0 0.00 0.00 0.00 72 -0.1
20260504213327 68 242 12.0 16.0 0.00 0.00 0.00 71 -0.1
20260504211328 67 305 10.0 16.0 0.00 0.00 0.00 69 -0.1
20260504210320 66 282 8.0 15.0 0.00 0.00 0.00 72 -0.1
20260504204827 67 303 12.0 18.0 0.00 0.00 0.00 68 -0.1
20260504202319 66 310 9.0 14.0 0.00 0.00 0.00 70 -0.1
20260504201325 66 292 5.0 14.0 0.00 0.00 0.00 69 -0.1
20260504200323 66 252 8.0 17.0 0.00 0.00 0.00 69 -0.1
20260504195832 66 274 8.0 14.0 0.00 0.00 0.00 71 -0.1
20260504195337 66 236 4.0 11.0 0.00 0.00 0.00 70 -0.1
20260504193336 65 336 6.0 13.0 0.00 0.00 0.00 70 -0.1
20260504192820 65 286 5.0 16.0 0.00 0.00 0.00 73 -0.1
20260504191828 65 271 4.0 15.0 0.00 0.00 0.00 73 -0.1
20260504185818 65 263 6.0 16.0 0.00 0.00 0.00 73 -0.1
20260504183822 64 262 6.0 15.0 0.00 0.00 0.00 74 -0.1
20260504183333 64 296 6.0 15.0 0.00 0.00 0.00 73 -0.1
20260504180324 64 297 12.0 16.0 0.00 0.00 0.00 75 -0.1
20260504175337 63 310 3.0 14.0 0.00 0.00 0.00 75 -0.1
20260504174830 63 248 9.0 13.0 0.00 0.00 0.00 76 -0.1
20260504174318 63 293 9.0 13.0 0.00 0.00 0.00 77 -0.1
20260504173335 63 281 5.0 11.0 0.00 0.00 0.00 78 -0.1
20260504172329 63 291 9.0 13.0 0.00 0.00 0.00 77 -0.1
20260504171335 63 246 4.0 11.0 0.00 0.00 0.00 77 -0.1
20260504170827 63 261 4.0 11.0 0.00 0.00 0.00 75 -0.1
20260504160336 61 267 2.0 7.0 0.00 0.00 0.00 79 -0.1
20260504150327 58 0.0 0.0 0.00 0.00 0.00 85 -0.1
20260504141325 58 0.0 0.0 0.00 0.00 0.00 88 -0.1
20260504130332 58 0.0 0.0 0.00 0.00 0.00 84 -0.1
20260504110322 59 0.0 0.0 0.00 0.00 0.00 83 -0.1
20260504100328 59 0.0 0.0 0.00 0.00 0.00 82 -0.1
20260504081825 60 0.0 0.0 0.00 0.00 0.00 83 -0.1
20260504080331 61 0.0 0.0 0.00 0.00 0.00 84 -0.1
20260504070336 61 0.0 0.0 0.00 0.00 0.00 83 -0.1
20260504050336 62 0.0 0.0 0.00 0.00 0.00 79 -0.1
20260504044831 62 0.0 0.0 0.00 0.00 0.00 79 -0.1
20260504044317 62 0.0 0.0 0.00 0.00 0.00 78 -0.1
20260504042820 62 0.0 0.0 0.00 0.00 0.00 78 -0.1
20260504042326 62 0.0 0.0 0.00 0.00 0.00 78 -0.1
20260504041822 62 0.0 0.0 0.00 0.00 0.00 78 -0.1
20260504035833 61 0.0 0.0 0.00 0.00 0.00 78 -0.1
20260504035336 61 0.0 0.0 0.00 0.00 0.00 78 -0.1
20260504034824 61 0.0 0.0 0.00 0.00 0.00 77 -0.1
20260504034332 61 0.0 0.0 0.00 0.00 0.00 77 -0.1
20260504033327 61 0.0 0.0 0.00 0.00 0.00 77 -0.1
20260504032831 61 0.0 0.0 0.00 0.00 0.00 77 -0.1
20260504032335 62 0.0 0.0 0.00 0.00 0.00 77 -0.1
20260504030321 62 0.0 0.0 0.00 0.00 0.00 76 -0.1
20260504025826 62 0.0 0.0 0.00 0.00 0.00 76 -0.1
20260504025328 62 0.0 0.0 0.00 0.00 0.00 76 -0.1
20260504024838 62 0.0 0.0 0.00 0.00 0.00 76 -0.1
20260504024322 62 0.0 0.0 0.00 0.00 0.00 76 -0.1
20260504023826 62 0.0 0.0 0.00 0.00 0.00 76 -0.1
20260504020827 62 0.0 0.0 0.00 0.00 0.00 74 -0.1
20260504014819 63 215 5.0 10.0 0.00 0.00 0.00 74 -0.1
20260504013837 63 246 5.0 10.0 0.00 0.00 0.00 73 -0.1
20260504012831 63 234 4.0 10.0 0.00 0.00 0.00 74 -0.1
20260504010837 63 262 5.0 10.0 0.00 0.00 0.00 72 -0.1
20260504010323 63 236 5.0 10.0 0.00 0.00 0.00 73 -0.1
20260504005829 63 294 5.0 10.0 0.00 0.00 0.00 73 -0.1
20260504005318 63 194 4.0 12.0 0.00 0.00 0.00 73 -0.1
20260504004324 63 264 5.0 13.0 0.00 0.00 0.00 72 -0.1
20260504003830 64 304 7.0 13.0 0.00 0.00 0.00 72 -0.1
20260504003335 64 241 5.0 12.0 0.00 0.00 0.00 71 -0.1
20260504002329 64 272 6.0 14.0 0.00 0.00 0.00 72 -0.1
20260504001318 64 251 6.0 13.0 0.00 0.00 0.00 71 -0.1
20260504000825 64 255 7.0 13.0 0.00 0.00 0.00 70 -0.1
20260503235837 65 242 4.0 12.0 0.00 0.00 0.00 69 -0.1
20260503234837 65 265 5.0 12.0 0.00 0.00 0.00 70 -0.1